Regional Weather Roundup
Issued by NWS

Home | Current Version | Previous Version | Text Only | Print | Product List | Glossary On
Versions: 1 2 3 4 5 6 7 8 9 10 11 12 13 14 15 16 17 18 19 20 21 22 23 24 25 26 27 28 29 30 31 32 33 34 35 36 37 38 39 40 41 42 43 44 45 46 47 48 49 50
000
ASUS45 KBOI 040110
RWRID

IDAHO REGIONAL WEATHER ROUNDUP
NATIONAL WEATHER SERVICE BOISE ID
600 PM MST SAT DEC 03 2016

NOTE: "FAIR" INDICATES FEW OR NO CLOUDS BELOW 12000 FEET
WITH NO SIGNIFICANT WEATHER AND/OR OBSTRUCTIONS TO VISIBILITY

IDZ012-014-040200-
SOUTHWEST IDAHO


CITY           SKY/WX    TMP DP  RH WIND       PRES   REMARKS
BOISE          MOCLDY    40  29  64 CALM      30.22F
CALDWELL       MOCLDY    39  27  62 CALM      30.24F
MOUNTAIN HOME  PTCLDY    39  28  64 N7        30.21S WCI  34
$$

IDZ016-017-040200-
SOUTHCENTRAL IDAHO


CITY           SKY/WX    TMP DP  RH WIND       PRES   REMARKS
BURLEY         PTCLDY    34  25  69 SW7       30.19S WCI  28
JEROME         PTCLDY    35  26  69 W9        30.21S WCI  28
TWIN FALLS     CLOUDY    34  25  69 SW7       30.21F WCI  28
$$

IDZ019>023-040200-
SOUTHEAST IDAHO


CITY           SKY/WX    TMP DP  RH WIND       PRES   REMARKS
IDAHO FALLS    CLOUDY    27  22  81 N7        30.17F WCI  19
POCATELLO      CLOUDY    34  26  72 SW14      30.19F WCI  25
REXBURG        CLOUDY    25  20  81 VRB3      30.16F
$$

IDZ006-010-011-018-031-032-040200-
CENTRAL IDAHO MOUNTAINS


CITY           SKY/WX    TMP DP  RH WIND       PRES   REMARKS
MCCALL         CLOUDY    28  23  81 SE3       30.14F
HAILEY         PTCLDY    30  23  74 CALM      30.12R
STANLEY          N/A     23  14  68 W5        30.15R WCI  17
SALMON         CLOUDY    34  21  60 SE3       30.10F
CHALLIS        PTCLDY    33  17  51 SW8       30.11R WCI  26
$$

IDZ002-004-006-007-026-040200-
NORTHERN IDAHO


CITY           SKY/WX    TMP DP  RH WIND       PRES   REMARKS
LEWISTON       CLOUDY    46  32  58 SW8       30.17S
LOWELL           N/A     37  34  89 CALM      30.23R
COEUR D`ALENE  CLOUDY    39  32  76 S7        30.10F WCI  34
MULLAN PASS    LGT SNOW  24  22  91 VRB3      29.99F FOG
$$



USA.gov is the U.S. government's official web portal to all federal, state and local government web resources and services.